Temperature
22 21 21 21 21 20 20 20 19 19 19 19 19 18 18 18 18 18 17 17 17 17 17 16 16 17 16 16 16 16 16 16 16 16 16 16 15 15 15 15 15 15 15
22 22 21 21 21 20 20 20 20 19 19 19 18 18 18 18 18 17 17 17 17 17 16 16 16 16 16 16 15 15 15 15 15 15 15 15 15 15 15 15 15 15 15
22 21 21 21 21 20 20 20 20 19 19 19 18 18 18 18 18 17 17 17 17 16 16 16 16 16 15 15 15 15 15 15 15 15 15 15 14 14 14 14 14 14 14
21 21 21 21 21 20 20 20 20 19 19 19 18 18 18 18 17 17 17 17 17 17 17 16 16 16 16 15 15 15 15 15 15 15 14 14 14 14 14 14 14 14 14
21 21 21 21 21 20 20 19 19 19 19 18 18 18 18 18 17 17 17 17 17 16 16 16 16 16 16 15 15 15 14 14 14 14 14 14 14 13 13 13 13 13 13
21 21 21 21 20 20 19 19 19 19 18 18 18 18 18 17 17 17 17 17 16 16 16 16 16 16 16 15 15 15 14 14 14 14 14 13 13 13 13 13 13 13 13
21 20 20 20 20 20 19 19 18 18 18 18 17 17 17 17 17 17 17 17 16 16 16 15 15 15 15 15 15 15 14 14 14 13 13 13 13 13 13 13 13 12 12
20 20 20 20 20 20 19 19 18 18 18 18 17 17 17 17 17 17 17 16 16 16 15 15 15 15 14 14 14 14 14 13 13 13 13 13 13 13 13 12 12 12 12
20 19 19 19 19 19 19 18 18 18 18 17 17 17 17 17 17 17 16 16 16 15 15 15 14 14 14 14 14 13 13 13 13 13 13 13 13 13 12 12 12 12 12
19 19 19 19 19 19 18 18 18 17 17 17 17 17 16 16 16 16 16 15 15 15 15 15 14 14 14 14 13 13 13 12 12 13 13 12 12 12 12 12 12 12 12
18 18 19 18 18 18 18 18 17 17 17 17 16 16 16 16 16 16 15 15 15 14 14 14 14 14 14 13 13 13 12 12 12 12 12 12 12 11 11 11 11 11 11
18 17 18 18 18 18 17 17 17 17 16 16 16 16 15 15 15 15 15 15 14 14 13 13 13 13 13 13 13 13 12 12 12 11 11 11 11 11 11 11 11 11 11
17 17 17 17 17 17 17 17 16 16 15 15 15 15 15 15 15 14 14 14 14 13 13 13 13 13 13 12 12 12 12 11 11 11 11 11 11 10 10 10 10 10 10
16 16 16 16 16 16 16 16 16 15 15 15 14 14 14 14 14 14 14 14 13 13 13 12 12 12 12 11 11 11 11 11 10 10 10 10 10 10 10 10 10 10 10
15 15 15 16 16 15 16 15 15 15 15 14 14 14 14 13 14 14 13 13 13 12 12 12 11 11 11 11 11 10 10 10 10 10 10 10 10 10 9 9 9 10 10
14 15 15 15 15 15 14 14 14 14 14 14 14 14 13 13 13 13 13 13 12 12 11 11 11 11 11 10 10 10 10 10 10 9 9 9 9 9 9 9 9 9 9
14 14 14 14 14 14 14 14 13 13 13 13 13 13 13 13 12 12 12 12 11 11 11 10 10 10 10 10 10 10 10 9 9 9 9 9 9 9 9 9 9 9 9
14 14 14 14 13 13 13 13 13 13 13 12 12 12 12 12 12 12 11 11 10 10 10 10 10 10 10 10 10 10 9 9 9 9 9 8 8 8 8 8 8 8 8
13 13 13 13 13 13 13 13 13 12 12 12 12 12 11 11 11 11 10 10 10 10 10 10 10 10 9 9 9 9 9 9 8 8 8 8 8 8 8 8 8 8 8
13 13 13 13 13 13 13 13 12 12 12 12 11 11 11 10 10 10 10 10 10 10 10 9 9 9 9 9 8 8 8 8 8 8 8 8 8 8 8 8 8 8 7
13 13 13 13 13 13 13 12 12 12 12 12 11 11 10 10 10 10 10 9 9 9 9 9 9 9 8 8 8 8 8 8 7 7 7 7 7 7 7 7 7 7 7
12 12 12 12 12 12 12 12 11 11 11 11 10 10 10 10 10 10 9 9 9 9 8 8 8 8 8 8 7 7 7 7 7 7 7 7 7 7 7 7 7 7 7
12 12 12 12 11 11 11 11 11 11 11 11 10 10 10 9 9 9 9 8 8 8 8 8 8 7 7 7 7 7 7 6 6 6 6 6 6 6 6 6 6 6 6
11 11 11 11 11 11 11 11 11 10 10 10 10 10 9 9 9 8 8 8 8 7 7 7 7 7 7 6 6 6 6 6 6 5 5 5 5 5 5 5 6 6 6
11 11 11 11 11 11 10 10 10 10 10 10 9 9 9 9 8 8 8 8 7 7 7 7 7 6 6 6 6 6 6 5 5 5 5 5 5 5 5 5 5 5 5
11 11 11 10 10 10 10 10 10 10 9 9 9 9 9 8 8 8 8 7 7 7 7 6 6 6 6 5 5 5 5 5 5 4 4 4 4 4 4 4 4 4 4
Wind_Speed
11 10 9 9 9 9 9 8 8 7 7 6 6 5 5 5 4 4 4 3 3 3 3 3 4 4 4 4 4 5 5 5 7 6 4 4 4 5 4 5 5 5 3
10 10 10 9 9 9 9 9 8 8 7 7 7 6 5 5 4 4 4 3 3 3 3 3 4 3 4 4 4 5 5 5 6 7 5 4 4 4 4 4 4 3 3
10 10 10 10 10 10 9 8 8 8 8 7 7 6 6 5 4 4 4 4 3 3 3 3 3 3 4 4 4 5 5 5 5 6 5 4 3 3 3 3 3 2 3
9 10 10 10 10 9 9 8 8 8 8 7 7 6 6 5 5 5 5 4 4 3 3 3 3 3 3 4 4 4 5 5 5 5 4 3 3 3 3 3 3 2 2
9 9 9 9 8 8 8 8 8 8 8 7 7 6 6 5 4 4 5 4 3 3 2 2 2 1 3 4 4 4 4 5 4 4 4 4 3 3 3 3 3 3 1
9 9 8 8 8 8 7 7 7 7 7 7 7 6 6 4 4 3 3 4 3 3 3 2 2 1 1 1 2 4 5 5 5 4 3 3 4 3 3 4 3 3 2
9 9 9 9 8 8 7 7 7 7 7 6 6 6 5 4 5 4 4 4 3 3 2 2 3 1 1 2 2 3 2 1 3 5 4 4 4 4 4 4 3 3 3
8 8 8 8 8 7 7 7 7 7 7 7 7 7 6 5 6 5 4 5 3 2 2 2 2 1 1 2 3 2 1 1 1 2 3 4 4 4 4 4 3 3 2
8 8 8 7 7 7 7 7 7 7 7 7 7 7 6 5 6 6 5 5 4 4 3 1 1 1 3 4 3 3 2 1 1 0 2 3 3 3 4 3 2 2 2
8 7 7 7 7 8 8 7 6 6 7 7 6 6 6 5 6 6 5 4 4 4 3 3 2 1 1 3 3 3 3 3 2 1 1 2 2 1 2 2 3 3 2
6 6 7 7 7 7 7 6 6 6 6 6 6 5 5 5 7 6 5 4 4 4 3 3 2 4 2 2 4 2 3 4 3 2 2 1 1 1 1 1 2 3 3
5 6 6 6 6 6 7 6 6 6 6 6 6 5 4 4 5 6 5 3 3 3 3 2 2 4 3 2 1 1 3 5 2 2 1 1 1 1 1 2 2 2 3
5 6 6 5 5 5 6 6 5 5 5 6 6 6 5 5 5 6 7 6 3 3 2 3 4 5 4 3 2 2 3 2 1 1 1 1 2 2 2 1 1 1 2
6 6 5 5 5 4 4 5 5 5 5 6 6 6 6 5 5 5 5 5 6 5 4 5 6 5 3 2 3 3 2 1 2 2 2 1 1 1 1 2 2 2 2
5 5 5 5 5 4 3 2 4 4 4 5 5 5 6 6 6 5 5 5 5 5 5 4 3 3 3 3 2 2 2 1 1 1 1 1 1 1 1 2 2 3 3
4 5 5 5 5 5 4 3 4 3 5 4 2 2 3 3 6 6 5 5 5 5 6 5 4 4 3 3 3 2 2 1 1 1 1 1 1 2 2 2 2 3 3
5 5 4 4 5 6 5 5 4 3 4 4 4 3 4 5 6 7 7 7 6 7 5 4 4 4 4 3 3 2 2 2 1 1 1 1 1 2 2 2 3 3 3
5 5 5 4 5 5 5 5 5 5 5 4 4 6 7 7 8 8 8 7 5 6 5 4 4 4 4 3 3 3 2 2 2 2 2 2 2 2 2 2 2 3 4
5 4 4 4 4 4 5 5 5 6 5 5 5 5 7 8 8 8 8 5 5 5 4 4 4 4 4 3 3 2 2 2 2 2 2 2 2 3 3 3 3 3 4
4 4 4 4 4 5 5 6 6 6 6 6 5 5 6 6 5 5 5 5 4 4 4 4 4 3 3 3 2 2 2 2 2 3 2 3 3 3 4 4 4 4 4
3 4 5 4 4 4 5 5 5 6 6 5 5 5 6 6 6 5 5 4 3 3 3 3 3 3 2 2 2 2 2 2 2 2 2 3 3 4 4 4 4 4 4
2 3 4 3 2 3 3 3 4 4 5 5 4 5 7 5 4 4 4 4 3 2 2 2 2 2 2 2 2 2 2 2 2 2 3 3 3 4 4 4 4 5 5
3 4 3 3 3 3 3 3 3 4 4 5 5 5 5 5 4 4 4 3 2 1 1 2 2 2 1 1 0 1 1 1 1 2 3 3 3 4 4 4 5 5 5
3 4 3 3 3 4 4 4 4 4 4 4 4 4 5 4 4 4 3 3 2 2 2 1 2 2 2 1 1 1 2 2 2 2 3 4 4 4 4 4 5 5 5
3 3 3 3 3 3 3 4 4 4 4 4 4 4 4 4 3 3 3 3 3 3 3 2 2 2 3 2 2 3 4 4 3 3 3 3 3 4 4 4 4 5 5
2 3 3 3 3 3 4 4 4 4 4 4 4 4 4 4 4 3 3 3 3 3 3 2 3 3 3 3 4 5 5 3 3 6 5 3 3 2 4 4 5 5 5
Wind_Direction
192 194 200 203 205 207 211 213 210 213 206 207 210 210 212 215 212 212 232 231 242 255 265 269 274 285 284 281 279 278 276 274 274 286 289 291 283 279 283 282 272 257 226
191 192 196 200 203 205 208 209 206 204 205 204 204 206 209 211 213 218 230 237 246 254 263 272 278 279 277 286 288 286 286 282 277 282 286 283 280 278 284 283 281 266 257
191 195 197 200 202 206 209 206 202 200 200 198 199 203 205 205 209 219 227 234 243 251 259 267 278 286 285 287 286 288 286 282 280 279 283 292 287 291 289 277 274 276 264
193 195 199 202 204 206 207 207 204 200 198 197 196 197 199 202 207 214 218 223 231 237 249 258 269 280 284 285 279 283 289 288 284 279 285 288 293 299 290 290 282 266 266
197 200 202 202 200 203 205 207 206 203 201 196 195 195 198 201 208 207 212 212 212 223 238 255 274 358 357 323 310 306 300 291 289 290 294 297 307 315 305 292 290 280 255
200 203 199 195 195 197 203 205 202 198 196 193 192 188 191 200 134 148 224 206 206 218 230 245 234 201 186 247 328 330 329 304 301 297 291 295 303 305 308 296 296 294 289
198 198 194 191 190 190 190 189 192 185 183 186 187 188 189 176 148 166 212 213 212 222 227 243 262 254 238 261 218 216 239 304 311 302 301 304 307 313 307 302 304 303 309
195 194 191 191 191 183 181 185 189 187 183 187 188 190 187 176 158 169 192 200 203 206 218 238 257 270 326 309 274 257 262 289 299 283 302 308 321 320 301 280 276 270 269
198 196 191 187 186 185 186 186 187 187 190 190 190 191 190 173 157 169 192 191 193 199 201 198 236 224 41 329 276 267 267 272 171 345 338 320 325 322 311 292 284 269 286
204 198 188 184 185 187 191 190 189 190 191 188 185 186 186 176 159 169 203 204 198 195 183 170 105 65 54 310 265 263 264 272 283 260 238 239 249 233 250 285 296 289 299
208 201 192 185 186 186 183 183 184 188 187 184 177 177 176 172 164 171 202 216 209 204 202 196 154 134 166 270 272 268 289 285 258 259 256 254 250 275 284 297 304 296 298
201 197 196 188 184 181 177 180 182 182 183 182 178 176 171 173 173 176 185 220 271 206 208 199 138 138 170 217 264 351 288 273 258 258 272 289 305 316 329 320 313 307 306
200 193 186 180 175 178 178 180 181 184 192 191 188 188 180 179 172 168 178 183 206 203 171 107 126 159 178 174 165 233 247 252 260 266 284 301 317 328 308 272 252 250 247
201 194 181 177 176 176 180 185 182 179 192 195 194 193 187 184 185 183 186 180 178 185 172 148 159 175 195 144 163 192 225 280 290 286 291 294 297 295 306 318 307 295 278
201 191 184 180 179 180 185 188 186 177 187 198 202 202 200 200 190 180 186 185 193 191 183 177 181 176 183 185 184 181 192 202 259 292 298 305 307 316 326 323 311 297 284
220 205 196 189 186 190 179 153 84 127 124 127 130 205 194 167 148 159 165 159 163 177 187 184 188 193 199 201 200 190 190 214 250 260 272 289 300 307 312 314 309 308 306
219 213 205 194 194 197 190 183 175 138 112 111 128 136 150 148 148 162 169 169 171 183 194 192 192 193 198 201 202 203 204 201 234 249 260 270 283 297 317 320 318 315 308
211 205 206 203 202 198 195 193 194 193 185 175 155 151 153 153 155 163 166 164 167 187 198 196 193 194 194 201 208 211 209 196 209 230 247 272 281 287 301 303 305 322 312
216 210 204 206 203 196 192 194 196 197 195 180 167 160 162 162 164 172 179 187 181 187 199 205 203 198 197 201 207 209 209 216 231 242 246 274 282 279 288 297 298 301 291
217 198 202 211 207 195 194 197 194 193 189 184 183 175 164 169 171 172 186 196 195 196 203 205 204 205 203 205 206 214 220 223 228 245 258 270 281 286 286 286 293 299 296
215 193 189 209 207 195 192 197 199 198 192 186 186 168 173 184 183 183 188 192 198 202 209 208 199 198 197 201 207 222 236 243 249 263 272 273 277 282 286 289 293 295 301
215 205 199 196 188 181 181 193 202 197 189 186 177 160 171 196 188 184 186 190 191 192 195 201 201 195 192 197 204 219 241 261 271 274 276 279 282 285 290 294 300 303 302
205 197 190 185 179 162 177 187 190 194 190 186 176 169 175 184 181 178 179 180 180 176 179 188 186 173 146 149 179 201 250 290 307 305 289 284 287 288 290 294 294 296 300
198 194 188 182 188 185 182 182 180 182 184 184 183 177 176 180 180 172 166 158 164 167 165 164 153 134 124 108 105 96 66 18 325 301 290 286 289 291 289 289 288 294 295
187 182 178 173 179 181 174 174 174 172 173 177 178 174 168 166 161 156 155 156 157 150 145 141 139 134 129 114 89 73 62 43 10 328 284 277 277 281 287 287 291 294 294
152 155 156 160 166 168 166 171 172 167 167 165 161 157 154 152 148 150 154 152 148 144 138 128 123 125 129 120 103 88 80 59 17 334 305 279 280 288 296 292 300 298 298
Height
1521 1522 1524 1526 1528 1529 1530 1531 1531 1532 1533 1533 1534 1534 1534 1535 1535 1534 1535 1534 1534 1534 1533 1532 1532 1531 1530 1530 1529 1528 1527 1526 1524 1523 1522 1521 1519 1519 1518 1517 1517 1516 1515
1517 1519 1521 1523 1524 1526 1527 1528 1529 1529 1530 1531 1531 1532 1532 1533 1533 1532 1532 1532 1532 1531 1531 1530 1529 1529 1528 1527 1526 1525 1524 1523 1522 1520 1519 1518 1517 1516 1515 1514 1513 1513 1512
1514 1516 1517 1519 1521 1522 1524 1525 1526 1526 1527 1528 1528 1529 1530 1530 1530 1530 1530 1530 1530 1529 1528 1528 1527 1526 1525 1524 1523 1523 1522 1521 1519 1518 1517 1515 1514 1513 1512 1511 1511 1509 1509
1511 1512 1514 1515 1517 1519 1520 1521 1522 1523 1524 1525 1526 1526 1527 1527 1528 1528 1528 1527 1527 1527 1526 1525 1525 1524 1523 1522 1521 1520 1519 1518 1516 1515 1514 1513 1512 1511 1510 1509 1508 1507 1506
1507 1509 1510 1512 1513 1515 1516 1518 1519 1520 1521 1522 1522 1523 1524 1524 1525 1525 1525 1525 1524 1524 1523 1523 1522 1521 1520 1519 1519 1518 1517 1516 1515 1514 1512 1511 1510 1508 1508 1506 1506 1505 1504
1502 1504 1506 1507 1508 1510 1512 1514 1515 1516 1517 1518 1519 1520 1520 1521 1522 1522 1522 1522 1521 1521 1520 1520 1519 1518 1517 1516 1515 1515 1514 1513 1512 1512 1511 1509 1508 1507 1505 1504 1504 1503 1502
1498 1500 1501 1502 1504 1505 1507 1509 1511 1511 1512 1513 1514 1515 1517 1517 1518 1518 1519 1518 1518 1518 1518 1517 1517 1516 1514 1514 1512 1512 1511 1510 1510 1509 1508 1507 1506 1505 1503 1502 1501 1500 1499
1494 1495 1497 1498 1500 1501 1503 1505 1506 1507 1508 1509 1509 1510 1512 1513 1513 1514 1515 1515 1515 1515 1515 1514 1514 1513 1512 1511 1511 1510 1509 1508 1507 1506 1506 1505 1504 1502 1501 1501 1499 1498 1497
1490 1491 1492 1494 1496 1497 1499 1500 1501 1503 1503 1504 1506 1507 1508 1509 1509 1510 1511 1511 1511 1511 1511 1511 1511 1510 1509 1509 1508 1508 1507 1506 1505 1504 1503 1502 1501 1500 1499 1498 1497 1497 1496
1485 1486 1488 1489 1491 1493 1495 1496 1498 1499 1500 1501 1502 1503 1504 1505 1506 1506 1507 1508 1508 1508 1508 1508 1507 1507 1507 1506 1506 1505 1504 1504 1503 1502 1501 1500 1499 1498 1497 1496 1495 1495 1495
1481 1482 1483 1484 1486 1487 1489 1491 1493 1494 1496 1497 1498 1499 1500 1501 1502 1503 1504 1504 1505 1505 1505 1505 1504 1503 1503 1503 1503 1502 1501 1501 1501 1500 1499 1498 1497 1496 1495 1494 1493 1493 1493
1477 1478 1479 1480 1481 1483 1484 1486 1488 1490 1492 1493 1494 1496 1496 1497 1499 1499 1500 1501 1501 1502 1502 1502 1501 1501 1500 1500 1500 1499 1499 1499 1499 1498 1498 1497 1496 1494 1493 1492 1491 1490 1490
1473 1473 1474 1476 1477 1478 1480 1482 1483 1485 1487 1489 1491 1491 1492 1493 1494 1496 1496 1496 1497 1498 1499 1499 1499 1498 1498 1497 1497 1497 1497 1497 1497 1496 1495 1495 1494 1492 1491 1490 1489 1488 1487
1469 1470 1471 1472 1473 1474 1475 1478 1479 1480 1483 1484 1486 1487 1488 1489 1490 1491 1492 1492 1493 1494 1495 1495 1496 1496 1496 1495 1495 1495 1495 1495 1495 1494 1493 1493 1492 1491 1490 1489 1489 1487 1486
1465 1466 1467 1468 1469 1470 1472 1473 1474 1476 1478 1480 1482 1484 1485 1486 1486 1487 1487 1488 1489 1491 1491 1492 1493 1493 1493 1494 1493 1493 1493 1493 1492 1492 1492 1491 1490 1489 1488 1488 1486 1486 1485
1463 1463 1463 1464 1466 1467 1468 1468 1470 1472 1474 1476 1477 1479 1481 1483 1483 1483 1484 1485 1486 1487 1489 1489 1490 1490 1491 1491 1491 1491 1491 1491 1490 1490 1490 1489 1488 1487 1487 1486 1485 1484 1482
1459 1460 1461 1461 1463 1464 1464 1464 1466 1469 1471 1472 1474 1475 1477 1478 1479 1479 1480 1481 1482 1484 1486 1486 1486 1487 1488 1488 1489 1489 1489 1488 1488 1488 1487 1487 1486 1485 1484 1483 1482 1481 1480
1455 1456 1456 1457 1458 1459 1460 1461 1463 1466 1468 1468 1470 1471 1473 1474 1475 1476 1477 1478 1479 1481 1482 1483 1483 1484 1484 1485 1486 1486 1486 1486 1485 1485 1485 1484 1484 1483 1482 1481 1480 1479 1478
1452 1452 1453 1453 1454 1455 1457 1458 1461 1463 1465 1465 1466 1467 1469 1471 1472 1473 1474 1475 1477 1478 1479 1480 1481 1481 1482 1482 1482 1483 1483 1483 1483 1483 1482 1482 1481 1480 1480 1479 1478 1477 1476
1448 1448 1449 1449 1450 1451 1453 1455 1457 1459 1461 1462 1463 1464 1465 1467 1469 1470 1471 1473 1474 1475 1476 1477 1477 1478 1479 1479 1479 1480 1480 1480 1480 1480 1480 1479 1479 1478 1477 1476 1476 1475 1474
1445 1446 1446 1447 1448 1448 1450 1452 1454 1456 1457 1458 1460 1461 1462 1464 1466 1467 1468 1469 1471 1471 1472 1473 1474 1475 1475 1475 1476 1476 1477 1477 1477 1477 1476 1476 1476 1475 1475 1474 1473 1472 1471
1443 1443 1444 1445 1445 1445 1447 1449 1451 1453 1454 1455 1457 1458 1459 1462 1463 1464 1466 1467 1468 1468 1469 1470 1470 1471 1471 1472 1472 1473 1473 1473 1473 1473 1473 1473 1473 1472 1472 1471 1470 1469 1468
1440 1441 1442 1442 1443 1443 1445 1447 1449 1450 1451 1453 1454 1456 1457 1459 1460 1461 1462 1464 1465 1465 1466 1467 1467 1468 1468 1468 1469 1469 1469 1470 1470 1470 1470 1470 1469 1469 1469 1468 1467 1466 1465
1437 1438 1438 1439 1441 1441 1443 1444 1446 1448 1449 1450 1452 1453 1454 1456 1457 1458 1459 1460 1461 1463 1464 1464 1464 1465 1465 1465 1465 1465 1466 1466 1466 1466 1466 1466 1466 1466 1465 1465 1464 1463 1463
1435 1436 1437 1438 1439 1440 1441 1442 1443 1445 1446 1448 1450 1451 1452 1453 1455 1456 1457 1458 1459 1460 1461 1461 1462 1462 1462 1462 1462 1462 1462 1462 1462 1462 1462 1463 1463 1462 1462 1461 1460 1460 1459
1435 1435 1436 1437 1438 1439 1440 1441 1442 1443 1445 1446 1448 1449 1450 1451 1452 1454 1455 1456 1457 1458 1459 1459 1459 1459 1459 1459 1459 1459 1459 1459 1459 1459 1459 1460 1460 1460 1459 1459 1458 1457 1456